Wind_Speed
21 19 17 15 13 11 10 11 12 12 12 13 15 16 18 18 17 24 24 22 20 22 22 20 18 15 14 13 11 11 11 10 9 7 5 4 4 4 3 2 2 3 4 5 4 4 5 6 6
23 22 20 18 16 15 13 13 14 13 14 15 15 16 18 16 18 21 23 20 20 24 25 24 23 21 20 18 16 14 12 11 10 10 10 8 8 6 5 5 6 6 5 5 4 5 6 5 5
26 25 24 22 19 17 17 17 17 15 14 13 16 18 17 15 18 20 19 19 21 25 27 27 25 25 24 22 20 19 17 16 16 15 13 12 10 9 8 8 7 6 6 5 5 5 5 5 5
29 29 27 25 21 19 18 18 19 18 16 14 14 17 16 14 17 18 20 18 20 22 25 24 23 23 23 22 21 20 19 18 16 15 14 13 12 10 9 9 8 7 7 7 7 6 5 5 5
32 31 30 29 24 21 20 19 19 19 17 16 16 16 15 14 16 16 18 16 16 19 21 21 20 19 18 17 17 17 16 15 15 14 13 12 12 11 10 10 9 8 7 7 7 6 6 6 5
35 34 33 29 25 24 22 20 20 18 18 17 16 17 16 15 15 17 17 15 15 15 17 17 17 16 15 14 14 13 12 12 11 11 10 10 9 9 9 9 8 8 8 8 8 8 7 7 7
36 36 33 32 30 26 24 21 21 22 20 17 16 18 16 16 14 17 15 15 14 14 16 15 15 15 14 13 13 12 11 10 9 9 8 6 5 5 5 5 4 5 6 7 8 8 9 9 8
38 38 38 36 31 28 26 24 22 21 21 19 17 17 18 18 16 17 17 15 14 14 15 14 13 11 11 11 11 10 9 9 8 7 6 5 4 4 4 4 5 5 6 8 9 10 10 11 11
41 41 42 39 34 31 29 26 24 21 20 18 18 18 19 17 17 16 17 14 13 12 11 11 10 10 9 8 8 8 8 9 8 8 8 7 6 5 3 3 4 6 7 8 10 11 11 12 12
46 44 43 43 39 35 32 30 26 24 22 21 20 17 18 18 16 15 16 13 11 10 9 9 8 8 8 7 7 7 7 7 8 8 9 8 9 9 8 7 7 7 8 9 10 11 12 13 13
46 45 46 47 43 38 34 32 29 26 24 23 22 20 20 19 17 14 13 12 10 8 6 6 5 6 7 6 5 5 5 6 7 8 9 9 10 10 10 10 10 10 11 12 12 13 14 14 15
35 42 47 48 46 40 35 35 32 28 27 25 24 21 19 18 18 16 13 11 9 7 4 2 2 3 5 5 4 2 3 4 5 6 6 7 8 9 9 8 9 9 9 10 11 12 13 14 15
32 47 49 49 47 43 40 39 37 32 31 29 27 24 22 19 18 17 15 12 10 8 6 4 3 2 2 3 3 2 1 1 1 1 3 4 5 6 6 7 7 8 9 10 12 13 15 16 18
32 46 51 52 51 44 41 43 39 36 34 32 31 27 24 23 21 19 18 15 12 11 9 8 6 6 5 4 3 3 4 4 4 3 4 4 6 6 6 7 8 10 11 12 14 15 17 19 21
21 39 55 52 49 47 45 47 41 39 37 36 34 30 28 26 23 22 19 18 16 16 14 12 11 10 8 7 7 6 6 6 7 8 8 8 8 10 10 10 11 12 14 15 16 18 20 21 23
28 34 61 49 47 51 49 45 42 40 39 37 35 31 30 28 27 24 21 20 18 18 19 16 15 13 13 12 11 10 10 10 9 9 9 10 12 11 12 13 14 16 18 20 21 21 23 24 26
30 33 51 54 54 55 52 46 46 42 40 37 35 33 31 29 27 25 22 21 20 19 19 19 18 18 17 16 16 15 15 14 13 13 13 14 15 16 16 16 18 20 23 25 26 27 28 28 29
33 37 41 59 59 57 52 46 46 43 41 38 38 34 31 29 28 26 24 21 20 21 20 20 20 20 20 19 19 20 18 19 19 18 19 20 21 21 20 21 23 25 27 29 31 32 32 33 33
41 36 42 58 56 54 53 46 48 46 43 41 38 34 34 30 30 25 24 22 22 22 22 22 21 23 22 23 22 22 23 23 24 24 24 24 25 26 25 26 27 29 32 33 34 35 36 36 37
42 40 46 57 53 54 52 48 50 50 46 42 41 38 36 34 30 26 24 23 23 22 23 23 24 25 25 25 26 25 26 27 27 28 29 29 28 28 29 30 31 32 34 37 38 38 39 39 41
49 43 54 61 53 52 54 53 54 50 47 44 44 41 39 35 29 27 26 24 24 25 24 24 25 25 26 26 27 27 27 29 30 31 32 32 33 33 32 33 34 34 36 38 40 41 41 43 43
51 46 55 57 58 58 56 57 55 53 51 50 46 45 41 38 32 30 27 27 27 25 24 25 26 25 26 27 28 30 29 30 32 32 33 35 36 36 36 36 37 37 38 40 42 44 45 46 46
54 58 61 61 56 55 58 60 57 56 58 53 47 45 44 40 34 32 31 30 30 29 28 28 28 28 28 29 29 31 33 33 33 33 34 36 37 38 39 39 40 41 42 43 44 46 47 48 50
64 59 62 59 58 58 57 60 58 58 57 53 51 47 46 42 38 37 35 33 32 32 32 31 32 32 32 31 32 32 33 35 35 35 35 37 39 41 41 42 43 45 45 46 47 47 49 52 54
54 54 57 66 60 62 56 60 58 60 53 52 53 48 46 42 40 39 37 35 35 35 35 34 35 35 35 35 34 35 36 36 36 37 38 39 41 43 44 44 45 46 46 47 49 51 53 55 58
58 56 60 64 67 61 58 64 63 57 52 49 48 46 45 44 43 43 40 38 38 38 38 37 38 38 38 38 38 37 38 38 40 40 41 41 42 45 45 45 46 47 48 50 52 55 57 59 60
54 60 55 55 58 53 54 58 56 53 52 50 46 46 44 45 46 46 44 42 42 42 41 40 40 39 40 39 40 40 40 42 43 43 43 43 44 45 45 47 48 50 53 55 57 58 60 61 62
48 43 46 58 55 57 57 56 57 49 46 45 43 42 44 48 48 47 45 45 44 43 42 41 42 40 41 41 42 42 43 42 43 44 44 45 46 47 49 52 53 55 57 59 59 60 61 61 60
49 48 46 43 48 57 54 59 51 42 42 41 41 41 44 46 46 44 44 43 42 41 41 39 40 39 40 42 45 45 43 43 44 46 47 48 49 51 53 55 57 59 59 60 61 60 59 58 58
47 44 41 41 44 51 48 48 44 39 39 40 41 41 42 41 41 41 43 44 43 42 41 40 40 41 40 43 44 42 43 43 46 48 50 52 53 55 56 57 58 59 60 60 60 59 59 60 63
Wind_Direction
201 195 193 192 195 183 170 164 143 130 123 109 100 96 93 93 89 84 83 83 85 88 87 87 86 88 92 92 90 87 84 85 86 80 77 85 93 66 45 31 351 3 11 26 19 348 339 343 340
202 198 192 192 191 183 169 170 144 143 129 126 119 109 100 99 93 87 89 89 92 90 90 87 87 87 87 88 90 90 91 91 88 84 85 90 90 94 83 68 66 56 33 15 11 38 45 40 33
206 198 193 192 192 180 171 171 153 143 140 134 124 114 110 108 103 100 95 97 93 90 88 87 85 83 82 84 85 86 87 86 87 87 88 89 88 85 80 76 74 66 64 56 51 48 50 40 25
212 202 194 195 188 182 173 177 155 149 148 143 132 121 118 117 111 111 106 101 99 95 91 88 85 84 84 85 85 85 85 85 86 86 88 86 88 90 88 82 80 78 72 69 65 64 62 55 40
214 203 199 197 185 183 182 181 158 153 149 150 140 127 130 125 115 111 105 103 97 97 96 94 88 84 81 80 82 84 84 84 84 84 85 84 82 79 78 77 72 66 59 56 53 48 42 39 32
213 204 202 198 188 183 188 185 160 155 152 157 144 136 137 129 123 114 109 107 106 101 94 94 95 91 88 86 87 87 88 88 86 83 79 78 79 81 79 75 69 64 58 53 47 39 33 23 19
213 203 202 202 191 185 187 188 169 161 159 154 148 141 142 138 132 118 117 114 110 109 104 100 97 98 96 91 86 84 84 83 83 82 83 79 75 68 68 65 58 48 45 40 35 33 32 29 20
211 203 202 206 190 189 191 189 176 169 160 158 153 152 148 144 140 129 122 121 117 110 107 104 97 93 93 94 93 88 83 79 74 69 68 66 60 45 27 25 20 17 16 15 13 11 8 5 359
210 203 203 207 195 198 192 193 185 176 166 163 168 161 152 147 143 137 130 129 122 114 101 94 89 85 84 86 90 93 89 79 72 68 67 62 60 60 48 28 21 13 12 9 5 2 0 356 357
212 205 204 206 200 198 196 198 190 187 177 176 177 165 162 152 151 150 143 142 134 123 113 99 79 68 69 74 84 90 90 82 77 75 71 66 63 57 55 47 35 23 20 21 19 15 14 12 10
221 207 204 210 203 197 202 204 196 196 186 185 183 176 172 163 161 166 162 150 150 138 129 107 79 54 45 48 66 86 86 83 81 77 73 65 62 59 56 51 44 40 36 30 24 20 16 12 9
244 210 209 211 208 199 204 208 203 200 200 192 195 183 187 178 172 177 176 171 168 167 167 145 84 25 18 23 28 57 86 81 86 74 66 63 57 55 49 43 37 33 28 18 7 1 357 354 351
252 208 211 213 211 205 205 210 206 201 207 199 203 195 193 190 184 189 187 190 203 195 206 225 251 282 338 0 346 338 269 162 117 57 37 19 27 18 12 3 358 359 355 352 349 345 343 340 339
238 215 214 212 212 211 209 215 209 205 212 208 208 202 202 203 199 200 198 201 213 224 224 240 244 266 288 307 303 301 286 258 243 257 287 306 315 318 324 333 335 333 328 328 328 329 330 330 330
234 231 213 214 212 214 210 218 213 208 211 216 212 210 209 211 211 214 212 209 217 230 232 238 249 257 262 271 284 279 272 270 265 259 267 271 277 289 296 306 312 314 313 312 314 317 318 321 324
224 243 208 211 213 216 218 218 220 215 214 215 220 214 219 217 220 221 223 224 223 231 244 244 243 247 252 259 265 271 275 276 276 275 271 273 278 276 283 294 301 304 305 306 308 309 312 316 319
218 245 225 209 209 218 217 217 221 220 218 217 219 221 220 222 226 226 224 229 230 230 239 247 248 247 246 250 257 261 267 270 274 276 276 272 274 281 286 290 293 297 299 301 304 307 310 313 315
222 230 234 217 217 221 218 213 221 222 223 221 220 221 223 222 226 228 231 232 237 239 238 246 251 254 256 256 255 259 264 268 271 271 273 278 279 281 286 289 291 294 296 299 301 304 307 309 311
216 226 232 217 221 222 223 213 221 220 221 223 226 221 223 221 226 228 235 234 238 242 245 246 252 259 260 259 261 262 263 267 271 272 271 271 277 283 285 287 290 293 294 296 298 302 304 307 308
220 220 228 217 218 222 225 219 220 222 220 219 225 224 224 223 223 226 230 236 239 242 243 244 245 251 257 261 263 266 269 270 271 275 277 279 281 283 285 286 288 290 293 296 299 301 303 306 307
223 219 214 213 218 223 223 220 221 221 223 222 224 225 226 227 227 230 235 235 238 238 243 246 249 252 256 262 267 268 270 271 274 276 278 280 282 284 286 288 289 291 292 295 297 300 302 303 304
222 215 211 214 218 221 223 222 220 219 224 225 224 227 227 230 225 232 238 242 245 247 250 252 255 255 260 264 269 272 270 272 271 274 277 278 280 283 287 289 291 292 294 294 297 299 300 302 303
223 213 212 218 221 222 223 226 216 219 226 227 225 230 230 231 231 234 239 243 247 250 252 256 258 261 262 264 268 271 274 273 276 275 277 280 281 282 285 288 291 293 294 296 297 298 300 301 303
211 211 215 220 220 225 223 227 220 223 225 227 228 228 232 232 231 234 237 245 250 253 256 259 261 262 263 264 267 269 270 272 275 277 277 279 280 281 283 286 288 290 293 295 296 297 298 300 301
212 213 220 222 217 222 223 226 223 224 226 228 232 232 233 237 239 241 241 244 249 254 257 259 262 264 264 265 269 272 272 273 273 275 275 276 279 281 284 285 287 289 291 292 293 295 297 298 298
214 214 221 222 217 219 222 226 226 227 230 230 235 237 239 242 243 245 247 249 251 253 256 260 261 263 265 268 270 272 274 275 274 274 275 277 280 281 283 285 288 289 291 292 293 294 295 296 297
216 218 220 223 222 226 228 229 232 230 233 233 235 238 241 246 248 249 250 252 254 256 258 259 261 264 266 268 269 270 273 274 275 276 277 279 279 281 284 286 288 290 292 293 294 295 295 296 296
219 224 229 221 223 222 225 227 229 227 231 236 236 237 240 244 248 251 253 255 256 258 260 260 260 262 265 267 268 268 269 272 275 276 278 279 281 284 286 288 289 291 292 293 293 294 295 295 294
211 213 218 227 234 233 236 233 230 236 237 241 241 238 239 241 244 249 252 255 257 258 259 259 260 260 262 264 266 266 268 271 274 277 279 282 284 286 287 288 290 290 291 293 294 294 293 292 293
219 220 228 229 236 236 236 235 234 236 239 238 238 241 242 242 245 247 249 252 253 255 256 258 259 260 260 262 264 268 270 273 275 278 281 283 284 285 287 288 290 292 293 294 294 293 293 293 293
Height
5867 5867 5869 5872 5876 5876 5876 5879 5878 5877 5879 5879 5878 5878 5877 5878 5879 5876 5873 5874 5874 5871 5871 5871 5870 5871 5872 5872 5873 5873 5874 5875 5876 5876 5876 5877 5877 5877 5878 5878 5878 5878 5878 5878 5878 5878 5877 5876 5875
5865 5867 5869 5870 5873 5874 5876 5878 5877 5878 5879 5879 5879 5879 5879 5881 5880 5878 5877 5878 5878 5875 5873 5874 5873 5874 5874 5874 5875 5875 5875 5876 5877 5877 5877 5878 5878 5879 5878 5878 5879 5878 5879 5879 5878 5878 5877 5876 5875
5864 5866 5867 5868 5871 5874 5876 5877 5876 5878 5879 5881 5880 5880 5880 5882 5881 5880 5881 5881 5881 5877 5876 5877 5877 5877 5877 5877 5877 5878 5878 5878 5878 5879 5879 5880 5880 5880 5880 5879 5879 5879 5879 5879 5879 5878 5878 5877 5876
5863 5866 5866 5867 5871 5875 5876 5877 5875 5877 5878 5881 5882 5882 5883 5884 5882 5883 5881 5882 5881 5879 5877 5879 5880 5881 5881 5880 5881 5881 5881 5881 5881 5881 5881 5881 5881 5882 5881 5881 5881 5881 5880 5880 5879 5879 5878 5877 5875
5861 5863 5865 5864 5869 5874 5876 5877 5877 5877 5879 5881 5881 5883 5884 5884 5885 5885 5884 5886 5886 5884 5881 5881 5883 5883 5884 5884 5884 5884 5884 5884 5884 5884 5884 5883 5883 5883 5883 5883 5882 5882 5881 5880 5880 5879 5878 5877 5876
5859 5861 5863 5864 5868 5873 5875 5878 5876 5878 5879 5882 5881 5883 5886 5885 5886 5886 5887 5888 5888 5887 5886 5885 5884 5884 5885 5885 5885 5885 5885 5885 5885 5885 5885 5885 5885 5884 5884 5883 5883 5882 5882 5881 5880 5879 5878 5877 5876
5855 5858 5861 5864 5866 5871 5874 5877 5877 5876 5878 5882 5883 5883 5886 5886 5886 5887 5887 5888 5889 5888 5887 5888 5888 5887 5887 5887 5887 5886 5886 5886 5886 5886 5886 5886 5885 5885 5885 5884 5884 5883 5882 5881 5880 5879 5878 5877 5875
5850 5856 5856 5861 5864 5869 5872 5875 5878 5879 5878 5881 5883 5884 5886 5886 5886 5887 5888 5889 5890 5890 5889 5888 5889 5890 5889 5889 5888 5888 5888 5888 5887 5887 5887 5886 5886 5885 5885 5884 5884 5883 5883 5882 5881 5880 5879 5878 5877
5845 5852 5853 5859 5861 5867 5870 5874 5877 5878 5879 5881 5882 5884 5886 5887 5887 5888 5888 5890 5891 5891 5892 5891 5891 5891 5891 5890 5890 5890 5889 5889 5889 5888 5888 5887 5886 5886 5885 5885 5884 5884 5883 5882 5881 5880 5879 5878 5877
5840 5847 5852 5853 5858 5861 5866 5871 5874 5876 5878 5879 5882 5884 5887 5886 5889 5888 5889 5890 5892 5892 5893 5892 5892 5892 5892 5891 5891 5891 5891 5890 5890 5889 5889 5888 5887 5886 5886 5885 5884 5884 5883 5882 5881 5880 5878 5877 5876
5836 5844 5846 5849 5854 5858 5862 5869 5873 5874 5877 5879 5880 5882 5884 5885 5887 5888 5889 5891 5892 5892 5893 5893 5893 5893 5893 5892 5892 5892 5892 5892 5891 5891 5890 5889 5889 5887 5886 5886 5885 5884 5883 5882 5881 5880 5878 5877 5875
5833 5839 5843 5846 5851 5854 5859 5866 5870 5873 5875 5878 5879 5880 5885 5886 5886 5888 5888 5890 5892 5892 5893 5893 5893 5893 5894 5893 5893 5893 5893 5893 5892 5891 5891 5890 5889 5888 5887 5887 5886 5885 5884 5882 5881 5879 5878 5876 5875
5828 5835 5837 5841 5848 5853 5854 5859 5865 5868 5872 5876 5877 5878 5881 5884 5885 5889 5888 5889 5890 5891 5892 5892 5892 5893 5894 5893 5893 5893 5893 5893 5893 5892 5892 5891 5890 5888 5887 5887 5886 5885 5883 5882 5880 5879 5877 5875 5873
5822 5828 5833 5834 5842 5849 5852 5855 5861 5864 5868 5872 5875 5876 5879 5881 5883 5885 5886 5887 5890 5890 5891 5892 5892 5892 5892 5893 5893 5893 5893 5893 5892 5892 5892 5891 5890 5889 5887 5886 5884 5883 5882 5880 5878 5876 5874 5873 5870
5813 5820 5826 5829 5838 5844 5847 5850 5857 5860 5863 5868 5871 5873 5876 5879 5881 5882 5884 5885 5887 5889 5889 5890 5890 5891 5892 5891 5891 5892 5892 5892 5891 5890 5890 5889 5889 5888 5886 5885 5883 5881 5878 5877 5875 5873 5872 5870 5868
5805 5815 5818 5824 5830 5837 5842 5849 5854 5857 5860 5863 5867 5870 5874 5876 5877 5879 5881 5882 5884 5885 5886 5887 5888 5888 5889 5890 5889 5890 5889 5889 5889 5889 5889 5888 5886 5886 5884 5883 5881 5879 5877 5874 5872 5870 5868 5866 5864
5800 5811 5816 5820 5826 5827 5833 5843 5847 5853 5858 5860 5863 5866 5869 5873 5875 5875 5876 5879 5881 5883 5884 5884 5884 5885 5885 5885 5887 5886 5886 5886 5887 5886 5886 5885 5883 5883 5882 5880 5877 5875 5873 5871 5869 5867 5864 5861 5858
5797 5803 5807 5813 5818 5822 5828 5836 5842 5850 5854 5857 5860 5861 5866 5869 5870 5871 5874 5874 5876 5879 5879 5880 5880 5881 5883 5882 5883 5883 5883 5883 5882 5882 5882 5880 5879 5879 5877 5876 5874 5871 5868 5866 5864 5862 5860 5856 5854
5790 5795 5801 5808 5813 5818 5824 5829 5836 5843 5846 5851 5857 5859 5862 5864 5865 5868 5870 5871 5871 5874 5875 5875 5876 5876 5878 5878 5877 5878 5878 5878 5878 5877 5876 5876 5875 5874 5873 5871 5870 5867 5863 5859 5857 5855 5853 5851 5848
5782 5786 5793 5800 5805 5811 5818 5825 5828 5833 5839 5845 5850 5853 5858 5859 5861 5862 5865 5867 5867 5869 5870 5872 5871 5872 5872 5873 5872 5873 5874 5872 5871 5871 5870 5870 5870 5868 5867 5865 5863 5861 5858 5854 5851 5848 5846 5844 5841
5777 5780 5785 5793 5798 5802 5809 5814 5820 5825 5831 5836 5842 5847 5852 5856 5857 5858 5860 5861 5863 5863 5864 5865 5866 5866 5867 5867 5868 5868 5868 5867 5866 5865 5864 5863 5862 5861 5860 5859 5856 5854 5851 5848 5844 5841 5838 5835 5832
5769 5774 5778 5785 5790 5794 5800 5805 5811 5817 5821 5827 5834 5838 5845 5849 5851 5854 5854 5855 5857 5858 5858 5859 5861 5860 5861 5860 5860 5861 5860 5860 5858 5858 5857 5856 5854 5853 5852 5851 5849 5847 5844 5841 5837 5834 5830 5827 5823
5763 5764 5770 5775 5781 5785 5791 5796 5806 5808 5814 5821 5829 5833 5837 5840 5843 5847 5848 5848 5850 5851 5851 5852 5854 5855 5855 5855 5855 5853 5853 5851 5851 5851 5850 5849 5847 5845 5844 5841 5840 5838 5835 5832 5828 5825 5822 5817 5814
5750 5754 5760 5766 5771 5773 5785 5791 5800 5803 5810 5815 5820 5823 5827 5832 5835 5839 5841 5841 5843 5844 5846 5846 5847 5848 5849 5848 5849 5848 5846 5845 5844 5843 5842 5841 5839 5837 5835 5833 5830 5828 5826 5822 5819 5815 5811 5807 5803
5739 5747 5752 5756 5757 5768 5777 5780 5791 5796 5802 5809 5812 5817 5822 5824 5827 5831 5834 5835 5836 5837 5838 5838 5839 5840 5841 5841 5840 5840 5839 5839 5838 5836 5833 5831 5830 5828 5826 5824 5821 5818 5815 5812 5808 5804 5800 5796 5791
5732 5739 5740 5743 5750 5760 5765 5768 5777 5789 5795 5803 5806 5810 5814 5817 5820 5822 5824 5827 5829 5830 5831 5831 5831 5832 5832 5832 5832 5830 5830 5829 5829 5827 5825 5823 5822 5820 5817 5814 5811 5808 5806 5802 5798 5794 5789 5784 5779
5723 5727 5738 5741 5745 5753 5759 5766 5773 5784 5790 5796 5799 5801 5805 5808 5811 5814 5815 5817 5819 5821 5822 5822 5823 5822 5823 5823 5824 5822 5821 5819 5819 5817 5816 5814 5812 5810 5808 5805 5802 5798 5795 5791 5786 5781 5776 5772 5767
5718 5729 5728 5731 5738 5744 5749 5757 5764 5775 5783 5787 5791 5793 5796 5798 5801 5803 5805 5808 5810 5811 5812 5812 5813 5813 5814 5814 5815 5813 5812 5810 5809 5808 5806 5804 5801 5799 5797 5794 5790 5786 5782 5778 5774 5769 5764 5759 5754
5711 5713 5718 5726 5733 5738 5744 5749 5761 5769 5775 5778 5781 5784 5787 5788 5791 5793 5795 5797 5798 5800 5801 5802 5803 5803 5804 5805 5805 5803 5802 5801 5800 5799 5796 5794 5791 5788 5785 5781 5778 5774 5769 5765 5760 5756 5750 5744 5740
5703 5709 5716 5722 5728 5731 5736 5744 5754 5761 5765 5769 5772 5774 5776 5779 5782 5783 5786 5787 5789 5790 5791 5792 5793 5794 5794 5794 5794 5793 5792 5790 5789 5788 5786 5783 5779 5776 5773 5769 5765 5760 5756 5751 5747 5742 5737 5732 5726